CSN3278 ZGSZ-ZSAM

Flight info

Callsign CSN3278
Flight time 0h 41m
Altitude 24598
Route GUBLO R200 BEBEM A470 TEBON
Aircraft B738/M-SDE2E3FGHIRWXY/LB1

Departure

Time 2026-04-18 07:53
Airport Shenzhen Bao'an International Airport (ZGSZ)

Arrival

Time 2026-04-18 08:35
Airport Xiamen Gaoqi International Airport (ZSAM)
Time Latitude Longitude Altitude Speed Heading
2026-04-18 07:51 22.62440 113.80142 14 ft 0 kts 333°
2026-04-18 07:52 22.62442 113.80141 14 ft 2 kts 333°
2026-04-18 07:52 22.62562 113.80073 14 ft 53 kts 333°
2026-04-18 07:53 22.63130 113.79761 15 ft 127 kts 333°
2026-04-18 07:53 22.64080 113.79215 175 ft 171 kts 330°
2026-04-18 07:53 22.65100 113.78633 1062 ft 167 kts 333°
2026-04-18 07:53 22.66132 113.78065 2049 ft 166 kts 326°
2026-04-18 07:54 22.67069 113.77328 2884 ft 169 kts 320°
2026-04-18 07:54 22.67968 113.76458 3564 ft 182 kts 315°
2026-04-18 07:54 22.68956 113.75417 3857 ft 213 kts 314°
2026-04-18 07:54 22.70148 113.74309 4052 ft 242 kts 332°
2026-04-18 07:55 22.71877 113.74016 4427 ft 267 kts
2026-04-18 07:55 22.73571 113.74906 5222 ft 279 kts 40°
2026-04-18 07:55 22.74701 113.76591 6115 ft 286 kts 68°
2026-04-18 07:55 22.75056 113.78709 6948 ft 290 kts 92°
2026-04-18 07:56 22.74809 113.80891 7756 ft 295 kts 99°
2026-04-18 07:56 22.74431 113.83105 8463 ft 302 kts 101°
2026-04-18 07:56 22.74030 113.85342 8882 ft 301 kts 101°
2026-04-18 07:56 22.73637 113.87580 9613 ft 306 kts 100°
2026-04-18 07:57 22.73243 113.89875 10290 ft 315 kts 100°
2026-04-18 07:57 22.72837 113.92290 10557 ft 339 kts 100°
2026-04-18 07:57 22.72411 113.94867 10977 ft 354 kts 100°
2026-04-18 07:57 22.71983 113.97476 11661 ft 358 kts 100°
2026-04-18 07:58 22.71153 114.02757 13103 ft 365 kts 95°
2026-04-18 07:58 22.71128 114.05514 13812 ft 368 kts 84°
2026-04-18 07:58 22.71399 114.08283 14426 ft 372 kts 82°
2026-04-18 07:59 22.71715 114.11071 15041 ft 376 kts 82°
2026-04-18 07:59 22.72041 114.13903 15633 ft 381 kts 82°
2026-04-18 07:59 22.72364 114.16768 16223 ft 386 kts 83°
2026-04-18 07:59 22.72676 114.19628 16839 ft 389 kts 83°
2026-04-18 08:00 22.72987 114.22550 17448 ft 393 kts 83°
2026-04-18 08:00 22.73296 114.25504 18045 ft 396 kts 83°
2026-04-18 08:00 22.73605 114.28484 18588 ft 400 kts 83°
2026-04-18 08:00 22.73915 114.31496 19082 ft 404 kts 83°
2026-04-18 08:01 22.74228 114.34541 19577 ft 409 kts 83°
2026-04-18 08:01 22.74544 114.37617 20064 ft 414 kts 83°
2026-04-18 08:01 22.74864 114.40731 20557 ft 418 kts 83°
2026-04-18 08:01 22.75181 114.43827 21052 ft 421 kts 83°
2026-04-18 08:02 22.75505 114.46995 21532 ft 425 kts 83°
2026-04-18 08:02 22.75832 114.50196 22009 ft 429 kts 83°
2026-04-18 08:02 22.76160 114.53425 22485 ft 433 kts 83°
2026-04-18 08:02 22.76494 114.56687 22968 ft 437 kts 83°
2026-04-18 08:03 22.76831 114.59975 23369 ft 442 kts 83°
2026-04-18 08:03 22.77171 114.63305 23687 ft 448 kts 83°
2026-04-18 08:03 22.77518 114.66700 23877 ft 457 kts 83°
2026-04-18 08:03 22.77867 114.70135 24192 ft 461 kts 83°
2026-04-18 08:04 22.78213 114.73542 24478 ft 462 kts 83°
2026-04-18 08:04 22.78570 114.77035 24500 ft 470 kts 83°
2026-04-18 08:04 22.78944 114.80580 24517 ft 477 kts 83°
2026-04-18 08:04 22.79328 114.84167 24513 ft 480 kts 83°
2026-04-18 08:05 22.79713 114.87753 24506 ft 479 kts 83°
2026-04-18 08:05 22.80096 114.91334 24506 ft 478 kts 83°
2026-04-18 08:05 22.80477 114.94915 24512 ft 477 kts 83°
2026-04-18 08:05 22.80856 114.98485 24511 ft 477 kts 83°
2026-04-18 08:06 22.81227 115.02002 24509 ft 476 kts 83°
2026-04-18 08:06 22.81601 115.05562 24505 ft 475 kts 83°
2026-04-18 08:06 22.81975 115.09122 24512 ft 475 kts 83°
2026-04-18 08:06 22.82347 115.12675 24511 ft 474 kts 83°
2026-04-18 08:07 22.82997 115.18904 24504 ft 474 kts 83°
2026-04-18 08:07 22.84470 115.33099 24517 ft 474 kts 83°
2026-04-18 08:07 22.85928 115.47274 24507 ft 474 kts 83°
2026-04-18 08:07 22.87379 115.61513 24484 ft 475 kts 83°
2026-04-18 08:08 22.88816 115.75739 24513 ft 475 kts 83°
2026-04-18 08:08 22.90007 115.87630 24500 ft 476 kts 83°
2026-04-18 08:08 22.91052 115.97676 24504 ft 476 kts 83°
2026-04-18 08:08 22.91882 116.05586 24502 ft 476 kts 83°
2026-04-18 08:09 22.93348 116.19848 24503 ft 476 kts 83°
2026-04-18 08:09 22.94468 116.30723 24497 ft 476 kts 81°
2026-04-18 08:09 22.95338 116.34168 24492 ft 474 kts 64°
2026-04-18 08:09 22.96977 116.37241 24498 ft 470 kts 50°
2026-04-18 08:10 22.99215 116.39776 24494 ft 463 kts 35°
2026-04-18 08:10 23.03528 116.43272 24482 ft 463 kts 33°
2026-04-18 08:10 23.08950 116.47618 24484 ft 464 kts 33°
2026-04-18 08:10 23.11535 116.49724 24490 ft 465 kts 33°
2026-04-18 08:11 23.14113 116.51844 24489 ft 465 kts 33°
2026-04-18 08:11 23.16688 116.53975 24495 ft 465 kts 34°
2026-04-18 08:11 23.19256 116.56105 24497 ft 465 kts 34°
2026-04-18 08:11 23.21824 116.58237 24493 ft 465 kts 34°
2026-04-18 08:12 23.24397 116.60373 24484 ft 465 kts 34°
2026-04-18 08:12 23.26935 116.62481 24492 ft 465 kts 34°
2026-04-18 08:12 23.29503 116.64613 24489 ft 465 kts 34°
2026-04-18 08:12 23.32073 116.66747 24292 ft 466 kts 34°
2026-04-18 08:13 23.34632 116.68875 23941 ft 460 kts 34°
2026-04-18 08:13 23.37154 116.70973 23607 ft 452 kts 33°
2026-04-18 08:13 23.39638 116.73040 23246 ft 448 kts 33°
2026-04-18 08:13 23.42113 116.75098 22862 ft 447 kts 34°
2026-04-18 08:14 23.44539 116.77200 22473 ft 446 kts 39°
2026-04-18 08:14 23.46758 116.79571 22101 ft 446 kts 43°
2026-04-18 08:14 23.48863 116.81983 21734 ft 445 kts 44°
2026-04-18 08:14 23.50968 116.84438 21369 ft 443 kts 44°
2026-04-18 08:15 23.53069 116.86885 20999 ft 440 kts 44°
2026-04-18 08:15 23.55164 116.89302 20641 ft 437 kts 44°
2026-04-18 08:15 23.57255 116.91696 20285 ft 434 kts 44°
2026-04-18 08:15 23.59334 116.94065 19927 ft 429 kts 44°
2026-04-18 08:16 23.61382 116.96395 19575 ft 422 kts 44°
2026-04-18 08:16 23.63399 116.98687 19225 ft 415 kts 44°
2026-04-18 08:16 23.65352 117.00907 18890 ft 408 kts 44°
2026-04-18 08:16 23.67303 117.03127 18550 ft 402 kts 44°
2026-04-18 08:17 23.69222 117.05312 18213 ft 396 kts 44°
2026-04-18 08:17 23.71118 117.07471 17780 ft 393 kts 44°
2026-04-18 08:17 23.73002 117.09619 17314 ft 390 kts 44°
2026-04-18 08:17 23.74871 117.11749 16863 ft 387 kts 44°
2026-04-18 08:18 23.76731 117.13852 16418 ft 383 kts 43°
2026-04-18 08:18 23.78637 117.15816 15989 ft 380 kts 40°
2026-04-18 08:18 23.80599 117.17725 15562 ft 377 kts 39°
2026-04-18 08:18 23.82561 117.19603 15142 ft 374 kts 39°
2026-04-18 08:19 23.84511 117.21471 14711 ft 371 kts 39°
2026-04-18 08:19 23.86440 117.23329 14292 ft 368 kts 39°
2026-04-18 08:19 23.88344 117.25174 13887 ft 365 kts 39°
2026-04-18 08:19 23.90232 117.27012 13453 ft 362 kts 39°
2026-04-18 08:20 23.92100 117.28834 13104 ft 356 kts 39°
2026-04-18 08:20 23.93927 117.30618 12853 ft 349 kts 39°
2026-04-18 08:20 23.95695 117.32349 12588 ft 343 kts 39°
2026-04-18 08:20 23.97454 117.34071 12339 ft 336 kts 39°
2026-04-18 08:21 23.99176 117.35758 12116 ft 329 kts 39°
2026-04-18 08:21 24.00865 117.37412 11923 ft 322 kts 39°
2026-04-18 08:21 24.02517 117.39030 11719 ft 316 kts 39°
2026-04-18 08:21 24.04140 117.40621 11515 ft 310 kts 39°
2026-04-18 08:22 24.05711 117.42161 11280 ft 306 kts 39°
2026-04-18 08:22 24.07285 117.43704 11068 ft 301 kts 39°
2026-04-18 08:22 24.08839 117.45228 10828 ft 300 kts 39°
2026-04-18 08:22 24.10387 117.46747 10581 ft 297 kts 39°
2026-04-18 08:23 24.11917 117.48249 10340 ft 294 kts 39°
2026-04-18 08:23 24.13435 117.49739 10116 ft 293 kts 39°
2026-04-18 08:23 24.14889 117.51291 9879 ft 291 kts 44°
2026-04-18 08:23 24.16256 117.52915 9619 ft 289 kts 45°
2026-04-18 08:24 24.17592 117.54541 9370 ft 286 kts 45°
2026-04-18 08:24 24.18899 117.56134 9115 ft 284 kts 45°
2026-04-18 08:24 24.20227 117.57744 8832 ft 285 kts 45°
2026-04-18 08:24 24.21560 117.59355 8533 ft 286 kts 45°
2026-04-18 08:25 24.22899 117.60968 8242 ft 286 kts 45°
2026-04-18 08:25 24.24238 117.62578 7937 ft 286 kts 45°
2026-04-18 08:25 24.25573 117.64181 7645 ft 285 kts 45°
2026-04-18 08:25 24.26906 117.65782 7372 ft 284 kts 45°
2026-04-18 08:26 24.28238 117.67377 7084 ft 283 kts 45°
2026-04-18 08:26 24.29545 117.68947 6799 ft 282 kts 45°
2026-04-18 08:26 24.30867 117.70536 6536 ft 282 kts 45°
2026-04-18 08:26 24.32191 117.72124 6249 ft 282 kts 45°
2026-04-18 08:27 24.33514 117.73715 5945 ft 282 kts 45°
2026-04-18 08:27 24.34817 117.75282 5681 ft 273 kts 45°
2026-04-18 08:27 24.36072 117.76793 5426 ft 264 kts 46°
2026-04-18 08:27 24.37295 117.78264 5171 ft 257 kts 46°
2026-04-18 08:28 24.38467 117.79672 4924 ft 250 kts 45°
2026-04-18 08:28 24.39533 117.81143 4657 ft 245 kts 64°
2026-04-18 08:28 24.39966 117.82918 4429 ft 239 kts 83°
2026-04-18 08:28 24.40103 117.84726 4245 ft 236 kts 86°
2026-04-18 08:29 24.40209 117.86493 4060 ft 228 kts 86°
2026-04-18 08:29 24.40321 117.88205 3843 ft 222 kts 85°
2026-04-18 08:29 24.40437 117.89869 3634 ft 215 kts 85°
2026-04-18 08:29 24.40553 117.91471 3452 ft 207 kts 86°
2026-04-18 08:30 24.40669 117.93013 3285 ft 199 kts 83°
2026-04-18 08:30 24.41199 117.94333 3077 ft 192 kts 47°
2026-04-18 08:30 24.42082 117.95403 2948 ft 189 kts 52°
2026-04-18 08:30 24.42880 117.96549 2809 ft 189 kts 53°
2026-04-18 08:31 24.43684 117.97699 2689 ft 190 kts 53°
2026-04-18 08:31 24.44495 117.98844 2571 ft 190 kts 53°
2026-04-18 08:31 24.45303 117.99980 2452 ft 188 kts 53°
2026-04-18 08:31 24.46092 118.01086 2346 ft 181 kts 53°
2026-04-18 08:32 24.46868 118.02175 2106 ft 180 kts 54°
2026-04-18 08:32 24.47611 118.03222 1885 ft 171 kts 54°
2026-04-18 08:32 24.48327 118.04227 1676 ft 165 kts 53°
2026-04-18 08:32 24.49006 118.05178 1477 ft 155 kts 54°
2026-04-18 08:33 24.49672 118.06112 1262 ft 152 kts 54°
2026-04-18 08:33 24.50310 118.07008 1053 ft 148 kts 54°
2026-04-18 08:33 24.50956 118.07915 898 ft 152 kts 54°
2026-04-18 08:33 24.51607 118.08834 720 ft 153 kts 54°
2026-04-18 08:34 24.52269 118.09762 566 ft 154 kts 56°
2026-04-18 08:34 24.52923 118.10684 297 ft 151 kts 54°
2026-04-18 08:34 24.53574 118.11595 93 ft 151 kts 53°
2026-04-18 08:34 24.54166 118.12424 51 ft 117 kts 52°
2026-04-18 08:35 24.54533 118.12937 49 ft 54 kts 51°
2026-04-18 08:35 24.54680 118.13152 50 ft 22 kts 64°
2026-04-18 08:35 24.54707 118.13276 48 ft 12 kts 80°
2026-04-18 08:35 24.54719 118.13362 49 ft 11 kts 81°
2026-04-18 08:36 24.54731 118.13445 49 ft 11 kts 82°
2026-04-18 08:36 24.54750 118.13524 48 ft 11 kts 65°
2026-04-18 08:36 24.54793 118.13588 45 ft 10 kts 51°
2026-04-18 08:36 24.54839 118.13652 45 ft 11 kts 52°
2026-04-18 08:37 24.54876 118.13715 47 ft 7 kts 83°
2026-04-18 08:37 24.54849 118.13755 47 ft 7 kts 140°
2026-04-18 08:37 24.54813 118.13786 47 ft 7 kts 142°
2026-04-18 08:37 24.54794 118.13826 46 ft 7 kts 78°
2026-04-18 08:38 24.54803 118.13869 46 ft 4 kts 77°
2026-04-18 08:38 24.54807 118.13890 44 ft 2 kts 76°
2026-04-18 08:38 24.54809 118.13899 45 ft 0 kts 76°